TimeEST,TemperatureF,Dew PointF,Humidity,Sea Level PressureIn,VisibilityMPH,Wind Direction,Wind SpeedMPH,Gust SpeedMPH,PrecipitationIn,Events,Conditions,WindDirDegrees,DateUTC
12:15 AM,30.4,30.0,99,30.47,10.0,North,-9999.0,-,N/A,,Clear,0,2012-11-17 05:15:00
12:35 AM,30.2,29.8,99,30.47,10.0,North,-9999.0,-,N/A,,Clear,0,2012-11-17 05:35:00
12:55 AM,30.2,30.0,99,30.47,10.0,North,-9999.0,-,N/A,,Clear,0,2012-11-17 05:55:00
1:15 AM,30.0,29.3,97,30.47,10.0,North,-9999.0,-,N/A,,Clear,0,2012-11-17 06:15:00
1:35 AM,29.8,29.3,98,30.47,10.0,North,-9999.0,-,N/A,,Clear,0,2012-11-17 06:35:00
1:55 AM,29.7,29.1,98,30.47,10.0,North,-9999.0,-,N/A,,Clear,0,2012-11-17 06:55:00
2:15 AM,29.7,29.3,99,30.47,10.0,North,-9999.0,-,N/A,,Clear,0,2012-11-17 07:15:00
2:35 AM,29.1,28.9,99,30.47,10.0,North,-9999.0,-,N/A,,Clear,0,2012-11-17 07:35:00
2:55 AM,28.9,28.4,98,30.47,10.0,North,-9999.0,-,N/A,,Clear,0,2012-11-17 07:55:00
3:15 AM,28.9,28.8,99,30.47,10.0,North,-9999.0,-,N/A,,Clear,0,2012-11-17 08:15:00
3:35 AM,28.4,28.4,100,30.47,10.0,North,-9999.0,-,N/A,,Clear,0,2012-11-17 08:35:00
3:55 AM,28.4,28.4,100,30.48,10.0,North,-9999.0,-,N/A,,Clear,0,2012-11-17 08:55:00
4:15 AM,28.0,27.7,99,30.48,10.0,North,-9999.0,-,N/A,,Clear,0,2012-11-17 09:15:00
4:35 AM,28.0,27.5,98,30.49,10.0,North,-9999.0,-,N/A,,Clear,0,2012-11-17 09:35:00
4:55 AM,27.9,27.5,99,30.49,10.0,North,-9999.0,-,N/A,,Clear,0,2012-11-17 09:55:00
5:15 AM,27.9,27.5,99,30.49,10.0,North,-9999.0,-,N/A,,Clear,0,2012-11-17 10:15:00
5:35 AM,27.9,27.7,99,30.50,10.0,North,-9999.0,-,N/A,,Clear,0,2012-11-17 10:35:00
5:55 AM,27.9,27.7,99,30.50,10.0,North,-9999.0,-,N/A,,Clear,0,2012-11-17 10:55:00
6:15 AM,27.7,27.5,99,30.50,10.0,North,-9999.0,-,N/A,,Clear,0,2012-11-17 11:15:00
6:35 AM,27.5,27.1,99,30.51,10.0,North,-9999.0,-,N/A,,Clear,0,2012-11-17 11:35:00
6:55 AM,27.1,27.0,99,30.51,10.0,North,-9999.0,-,N/A,,Clear,0,2012-11-17 11:55:00
7:15 AM,27.1,27.1,100,30.52,10.0,North,-9999.0,-,N/A,,Clear,0,2012-11-17 12:15:00
7:35 AM,27.5,27.5,100,30.53,10.0,North,-9999.0,-,N/A,,Clear,0,2012-11-17 12:35:00
7:55 AM,28.0,27.9,99,30.53,10.0,North,-9999.0,-,N/A,,Clear,0,2012-11-17 12:55:00
8:15 AM,30.2,30.2,100,30.53,10.0,North,-9999.0,-,N/A,,Clear,0,2012-11-17 13:15:00
8:35 AM,32.0,31.8,99,30.54,10.0,North,-9999.0,-,N/A,,Clear,0,2012-11-17 13:35:00
8:55 AM,33.6,32.7,96,30.54,10.0,North,-9999.0,-,N/A,,Clear,0,2012-11-17 13:55:00
9:15 AM,36.0,34.2,93,30.54,10.0,North,-9999.0,-,N/A,,Clear,0,2012-11-17 14:15:00
9:35 AM,38.5,35.8,90,30.54,10.0,North,-9999.0,-,N/A,,Clear,0,2012-11-17 14:35:00
9:55 AM,40.8,36.5,85,30.55,10.0,North,-9999.0,-,N/A,,Clear,0,2012-11-17 14:55:00
10:15 AM,44.6,37.6,76,30.55,10.0,North,-9999.0,-,N/A,,Clear,0,2012-11-17 15:15:00
10:35 AM,48.7,36.0,61,30.54,10.0,North,-9999.0,-,N/A,,Clear,0,2012-11-17 15:35:00
10:55 AM,51.8,34.3,51,30.54,10.0,North,-9999.0,-,N/A,,Clear,0,2012-11-17 15:55:00
11:15 AM,54.3,32.0,43,30.54,10.0,North,-9999.0,-,N/A,,Clear,0,2012-11-17 16:15:00
11:35 AM,55.4,31.1,40,30.53,10.0,North,-9999.0,-,N/A,,Clear,0,2012-11-17 16:35:00
12:55 PM,59.9,26.8,28,30.49,10.0,North,-9999.0,-,N/A,,Clear,0,2012-11-17 17:55:00
1:15 PM,60.6,25.9,27,30.48,10.0,North,-9999.0,-,N/A,,Clear,0,2012-11-17 18:15:00
1:35 PM,61.7,24.1,24,30.47,10.0,North,-9999.0,-,N/A,,Clear,0,2012-11-17 18:35:00
1:55 PM,61.9,24.4,24,30.46,10.0,North,-9999.0,-,N/A,,Clear,0,2012-11-17 18:55:00
2:15 PM,62.6,24.1,23,30.46,10.0,North,-9999.0,-,N/A,,Clear,0,2012-11-17 19:15:00
2:55 PM,62.6,23.9,23,30.46,10.0,North,-9999.0,-,N/A,,Clear,0,2012-11-17 19:55:00
3:15 PM,61.7,22.8,23,30.46,10.0,North,-9999.0,-,N/A,,Clear,0,2012-11-17 20:15:00
3:35 PM,60.8,23.9,24,30.47,10.0,North,-9999.0,-,N/A,,Clear,0,2012-11-17 20:35:00
3:55 PM,58.8,26.2,29,30.48,10.0,North,-9999.0,-,N/A,,Clear,0,2012-11-17 20:55:00
4:15 PM,56.8,26.6,31,30.48,10.0,North,-9999.0,-,N/A,,Clear,0,2012-11-17 21:15:00
4:35 PM,52.3,29.8,42,30.48,10.0,North,-9999.0,-,N/A,,Clear,0,2012-11-17 21:35:00
4:55 PM,53.8,27.9,37,30.49,10.0,North,-9999.0,-,N/A,,Clear,0,2012-11-17 21:55:00
5:15 PM,49.6,31.3,49,30.49,10.0,North,-9999.0,-,N/A,,Clear,0,2012-11-17 22:15:00
5:35 PM,46.4,32.2,58,30.50,10.0,North,-9999.0,-,N/A,,Clear,0,2012-11-17 22:35:00
5:55 PM,44.2,32.4,63,30.50,10.0,North,-9999.0,-,N/A,,Clear,0,2012-11-17 22:55:00
6:15 PM,41.7,32.2,69,30.50,10.0,North,-9999.0,-,N/A,,Clear,0,2012-11-17 23:15:00
6:35 PM,40.3,32.4,73,30.50,10.0,North,-9999.0,-,N/A,,Clear,0,2012-11-17 23:35:00
6:55 PM,39.2,32.2,76,30.50,10.0,North,-9999.0,-,N/A,,Clear,0,2012-11-17 23:55:00
7:15 PM,38.1,32.0,79,30.50,10.0,North,-9999.0,-,N/A,,Clear,0,2012-11-18 00:15:00
7:35 PM,37.4,32.0,81,30.49,10.0,North,-9999.0,-,N/A,,Clear,0,2012-11-18 00:35:00
7:55 PM,36.9,32.0,83,30.51,10.0,North,-9999.0,-,N/A,,Clear,0,2012-11-18 00:55:00
8:15 PM,36.5,31.8,83,30.51,10.0,North,-9999.0,-,N/A,,Clear,0,2012-11-18 01:15:00
8:35 PM,36.5,31.6,83,30.51,10.0,North,-9999.0,-,N/A,,Clear,0,2012-11-18 01:35:00
8:55 PM,35.6,31.6,85,30.51,10.0,North,-9999.0,-,N/A,,Clear,0,2012-11-18 01:55:00
9:15 PM,34.3,30.9,87,30.51,10.0,North,-9999.0,-,N/A,,Clear,0,2012-11-18 02:15:00
9:55 PM,32.9,30.2,90,30.51,10.0,North,-9999.0,-,N/A,,Clear,0,2012-11-18 02:55:00
10:15 PM,32.9,30.2,90,30.51,10.0,North,-9999.0,-,N/A,,Clear,0,2012-11-18 03:15:00
10:35 PM,32.9,30.4,90,30.51,10.0,North,-9999.0,-,N/A,,Clear,0,2012-11-18 03:35:00
10:55 PM,32.9,30.4,90,30.51,10.0,North,-9999.0,-,N/A,,Clear,0,2012-11-18 03:55:00
11:15 PM,32.9,30.0,89,30.51,10.0,North,-9999.0,-,N/A,,Clear,0,2012-11-18 04:15:00
11:35 PM,32.7,30.2,90,30.51,10.0,North,-9999.0,-,N/A,,Clear,0,2012-11-18 04:35:00
11:55 PM,32.9,30.4,90,30.51,10.0,North,-9999.0,-,N/A,,Clear,0,2012-11-18 04:55:00